Location: Aalsum
(53.3404°N, 6.0062°E)
Time: 03:49:27
(UTC+00:00)

Okean O Rocket - Pass Details

Date: 28 January 2023
Orbit: 620 x 643 km, 98.1° (Epoch: 24 March)

Event Time Altitude Azimuth Distance (km) Brightness Sun altitude
Rises 17:10:25 0° 120° (ESE) 2,915 4.6 -8.9°
Reaches altitude 10° 17:13:03 10° 104° (ESE) 2,016 3.7 -9.3°
Maximum altitude 17:16:15 20° 57° (ENE) 1,466 2.9 -9.7°
Drops below altitude 10° 17:19:29 10° 10° (N) 2,037 4.0 -10.2°
Sets 17:22:09 0° 354° (N) 2,955 4.9 -10.6°
